Find Starlink 36600

NORAD ID: 67623 Int'l Des: 2026-020 Owner: SPXS Country: US Constellation: starlink operational
LEOCIRCULAR

Current View

Loading 3D Globe...

About Starlink 36600

Description loading...

Upcoming Passes

Passes for default location (London). Set your location on the main map for personalized predictions.

Altitude History

Loading altitude history...

Two-Line Element Set

1 67623U 26020G 26146.18538163 .00030156 00000-0 11003-2 0 9990
2 67623 43.0012 62.2997 0001346 266.0775 93.9923 15.27596770 17965
Epoch: May 26, 2026 • Age: 14 hours

Current Status

Altitude 484.9 km
Velocity 7.63 km/s
Sub-Earth Point 33.94°N, 61.73°W
Launch Date Jan 30, 2026
Age 0.3 years
Type internet

Technical Details

Classification Payload
Mass 575.00 kg
Dry Mass 530.00 kg
Total Mass 575.00 kg
Length 0.30 m
Diameter 4.10 m
Span 29.00 m
Shape Box + pan
Manufacturer SPXS
Bus Type Starlink V2MO
Phase Status In Orbit
Owner/State SPXS/US

Most Searched